Beatrice, NE

10:55 PM CDT on July 21, 2017 (GMT -0500)
Beatrice Municipal

Weather History for KBIE - January, 2002

Change the Weather History Date:

Saturday, January 12, 2002

  Actual Average Record
Temperature  
Mean Temperature 39 °F -  
Max Temperature 48 °F 30 °F 58 °F (1961)
Min Temperature 30 °F 12 °F -21 °F (1974)
Degree Days  
Heating Degree Days 26    
Moisture  
Dew Point 18 °F    
Average Humidity 50    
Maximum Humidity 80    
Minimum Humidity 20    
Precipitation  
Precipitation 0.00 in - - ()
Sea Level Pressure  
Sea Level Pressure 30.04 in    
Wind  
Wind Speed 12 mph (West)    
Max Wind Speed 20 mph    
Max Gust Speed 26 mph    
Visibility 10 miles    
Events      
Averages and records for this station are not official NWS values.
T = Trace of Precipitation, MM = Missing Value Source: NWS Daily Summary

Daily Weather History Graph

Daily Weather History Graph

Search for Another Location

Airport or City:

Trip Planner

Search our weather history database for the weather conditions in past years. The results will help you decide how hot, cold, wet, or windy it might be!

Date:

Astronomy

Jan. 12, 2002 Rise Set
Actual Time 7:48 AM CST 5:22 PM CST
Civil Twilight 7:18 AM CST 5:52 PM CST
Nautical Twilight 6:45 AM CST 6:25 PM CST
Astronomical Twilight 6:12 AM CST 6:58 PM CST
Moon 7:16 AM CST (1/12) 4:35 PM CST (1/12)
Length of Visible Light 10h 33m
Length of Day
9h 33m
Waning Crescent, 1% of the Moon is Illuminated
Jan 12
Waning Crescent
Jan 13
New
Jan 21
First Quarter
Jan 28
Full
Feb 4
Last Quarter

Hourly Weather History & Observations

Time (CST) Temp. Windchill Dew Point Humidity Pressure Visibility Wind Dir Wind Speed Gust Speed Precip Events Conditions
12:30 AM 39.2 °F 31.2 °F 28.4 °F 65% 30.08 in 10.0 mi WNW 13.8 mph - N/A   Mostly Cloudy
12:50 AM 37.4 °F 29.8 °F 28.4 °F 70% 30.09 in 10.0 mi NW 11.5 mph - N/A   Mostly Cloudy
1:10 AM 37.4 °F 30.8 °F 28.4 °F 70% 30.08 in 10.0 mi NW 9.2 mph - N/A   Scattered Clouds
1:30 AM 37.4 °F 31.4 °F 28.4 °F 70% 30.08 in 10.0 mi NW 8.1 mph - N/A   Scattered Clouds
1:51 AM 39.2 °F 33.0 °F 26.6 °F 61% 30.09 in 10.0 mi NW 9.2 mph - N/A   Clear
2:12 AM 39.2 °F 30.8 °F 28.4 °F 65% 30.09 in 10.0 mi NW 15.0 mph - N/A   Clear
2:30 AM 41.0 °F 33.1 °F 28.4 °F 61% 30.10 in 10.0 mi NW 15.0 mph - N/A   Clear
2:51 AM 39.2 °F 31.2 °F 26.6 °F 61% 30.10 in 10.0 mi NW 13.8 mph 17.3 mph N/A   Mostly Cloudy
3:10 AM 39.2 °F 30.2 °F 26.6 °F 61% 30.10 in 10.0 mi NW 17.3 mph 23.0 mph N/A   Mostly Cloudy
3:30 AM 39.2 °F 31.2 °F 26.6 °F 61% 30.11 in 10.0 mi NW 13.8 mph - N/A   Overcast
3:50 AM 37.4 °F 28.2 °F 26.6 °F 65% 30.12 in 10.0 mi NW 16.1 mph 20.7 mph N/A   Overcast
4:10 AM 35.6 °F 26.6 °F 24.8 °F 65% 30.11 in 10.0 mi NW 13.8 mph - N/A   Mostly Cloudy
4:31 AM 35.6 °F 26.6 °F 24.8 °F 65% 30.11 in 10.0 mi NW 13.8 mph - N/A   Scattered Clouds
4:50 AM 33.8 °F 25.3 °F 24.8 °F 70% 30.10 in 10.0 mi NW 11.5 mph - N/A   Clear
5:11 AM 33.8 °F 24.8 °F 24.8 °F 70% 30.10 in 10.0 mi NW 12.7 mph - N/A   Clear
5:30 AM 33.8 °F 24.3 °F 24.8 °F 70% 30.10 in 10.0 mi NW 13.8 mph - N/A   Clear
6:11 AM 30.2 °F 21.9 °F 23.0 °F 75% 30.11 in 10.0 mi WNW 9.2 mph - N/A   Clear
6:32 AM 30.2 °F 21.3 °F 24.8 °F 80% 30.12 in 10.0 mi WNW 10.4 mph - N/A   Clear
6:50 AM 30.2 °F 20.8 °F 23.0 °F 75% 30.13 in 10.0 mi WNW 11.5 mph - N/A   Clear
7:12 AM 30.2 °F 21.3 °F 23.0 °F 75% 30.14 in 10.0 mi WNW 10.4 mph - N/A   Clear
8:10 AM 30.2 °F 21.9 °F 24.8 °F 80% 30.14 in 10.0 mi WNW 9.2 mph - N/A   Clear
8:31 AM 30.2 °F 21.9 °F 24.8 °F 80% 30.15 in 10.0 mi WNW 9.2 mph - N/A   Clear
8:52 AM 32.0 °F 23.0 °F 24.8 °F 75% 30.14 in 10.0 mi WNW 11.5 mph - N/A   Clear
9:10 AM 33.8 °F 24.8 °F 24.8 °F 70% 30.15 in 10.0 mi WNW 12.7 mph - N/A   Clear
9:31 AM 33.8 °F 23.2 °F 24.8 °F 70% 30.16 in 10.0 mi NW 17.3 mph 24.2 mph N/A   Clear
10:10 AM 37.4 °F 27.2 °F 24.8 °F 60% 30.18 in 10.0 mi NW 19.6 mph 26.5 mph N/A   Clear
11:32 AM 39.2 °F 30.8 °F 21.2 °F 49% 30.15 in 10.0 mi WNW 15.0 mph - N/A   Clear
11:50 AM 41.0 °F 32.8 °F 21.2 °F 45% 30.13 in 10.0 mi WNW 16.1 mph 20.7 mph N/A   Clear
12:10 PM 42.8 °F 35.4 °F 21.2 °F 42% 30.12 in 10.0 mi WNW 15.0 mph 18.4 mph N/A   Clear
12:31 PM 42.8 °F 35.8 °F 19.4 °F 39% 30.11 in 10.0 mi WNW 13.8 mph - N/A   Clear
1:10 PM 44.6 °F 37.8 °F 17.6 °F 34% 30.08 in 10.0 mi West 15.0 mph - N/A   Clear
1:31 PM 46.4 °F 40.4 °F 17.6 °F 32% 30.06 in 10.0 mi West 13.8 mph - N/A   Clear
1:52 PM 46.4 °F 40.7 °F 15.8 °F 29% 30.04 in 10.0 mi WNW 12.7 mph - N/A   Clear
2:10 PM 46.4 °F 41.9 °F 15.8 °F 29% 30.04 in 10.0 mi WNW 9.2 mph - N/A   Clear
2:51 PM 48.2 °F - 12.2 °F 24% 30.02 in 10.0 mi West 6.9 mph - N/A   Clear
3:31 PM 48.2 °F - 10.4 °F 22% 30.02 in 10.0 mi WNW 8.1 mph - N/A   Clear
3:50 PM 48.2 °F - 10.4 °F 22% 30.02 in 10.0 mi West 10.4 mph - N/A   Clear
4:11 PM 48.2 °F - 8.6 °F 20% 30.01 in 10.0 mi West 5.8 mph - N/A   Clear
4:31 PM 46.4 °F 41.9 °F 8.6 °F 22% 30.00 in 10.0 mi WSW 9.2 mph - N/A   Clear
5:10 PM 41.0 °F 37.1 °F 6.8 °F 24% 29.97 in 10.0 mi SW 5.8 mph - N/A   Clear
5:32 PM 35.6 °F 29.9 °F 6.8 °F 30% 29.96 in 10.0 mi SSW 6.9 mph - N/A   Clear
5:50 PM 35.6 °F 29.2 °F 6.8 °F 30% 29.95 in 10.0 mi South 8.1 mph - N/A   Clear
6:11 PM 35.6 °F 29.2 °F 6.8 °F 30% 29.94 in 10.0 mi South 8.1 mph - N/A   Clear
6:30 PM 33.8 °F 27.7 °F 6.8 °F 32% 29.93 in 10.0 mi South 6.9 mph - N/A   Clear
7:12 PM 33.8 °F 25.8 °F 8.6 °F 35% 29.92 in 10.0 mi South 10.4 mph - N/A   Clear
7:30 PM 32.0 °F 23.6 °F 8.6 °F 38% 29.91 in 10.0 mi South 10.4 mph - N/A   Clear
7:51 PM 30.2 °F 22.6 °F 6.8 °F 37% 29.90 in 10.0 mi South 8.1 mph - N/A   Clear
8:10 PM 30.2 °F 22.6 °F 8.6 °F 40% 29.89 in 10.0 mi South 8.1 mph - N/A   Clear
8:31 PM 30.2 °F 21.9 °F 8.6 °F 40% 29.88 in 10.0 mi South 9.2 mph - N/A   Clear
9:11 PM 32.0 °F 24.2 °F 8.6 °F 38% 29.86 in 10.0 mi South 9.2 mph - N/A   Clear
9:30 PM 33.8 °F 26.4 °F 10.4 °F 38% 29.84 in 10.0 mi South 9.2 mph - N/A   Clear
9:51 PM 35.6 °F 28.6 °F 10.4 °F 35% 29.83 in 10.0 mi South 9.2 mph - N/A   Clear
10:10 PM 35.6 °F 27.1 °F 10.4 °F 35% 29.81 in 10.0 mi South 12.7 mph - N/A   Clear
11:11 PM 35.6 °F 28.0 °F 12.2 °F 38% 29.80 in 10.0 mi South 10.4 mph - N/A   Scattered Clouds
11:30 PM 35.6 °F 28.6 °F 10.4 °F 35% 29.79 in 10.0 mi SSE 9.2 mph - N/A   Clear